STARLINK-31363, 59782

Orbit data source: Space-Track

STARLINK-31363, 59782 is a payload satellite owned by SpaceX/Seattle (US) in LEO that was launched on Sat, 18 May 2024 UTC via an FALCON 9 launch vehicle from the Air Force Eastern Test Range (AFETR). Payload-class satellites include a variety of spacecraft equipped with specific instruments for various scientific and technological missions. These include communications satellites like Starlink; space stations such as the ISS; scientific satellites like the Hubble; Earth observation satellites from companies like Planet Labs, Umbra, and HawkEye 360; GPS; miniature CubeSats for education and research; and military/defense satellites.

Loading next visibility...
Identifier
59782, 2024-093A
Orbit
LEO
Country
Flag of USUS
Related business
Manufacturer
SpaceX/Seattle
Mission
Operational spacecraft
Bus & Motor
STARLINK V2M, Unknown motor
Mass
730 kg wet, ~700 kg dry
Launch date (UTC)
2024-05-18 (1 year ago)
Launch vehicle
FALCON 9
Launch site
Air Force Eastern Test Range (AFETR)
Object type
Payload
Rocket body
Debris
Shape & HBR
Unknown
Radar Cross Section
Large (>1 m²)

Expand to show TLE details & history
Last TLE update: 20 hours ago

TLE from 20 hours ago
0 STARLINK-31363
1 59782U 24093A   25258.00738367  .00000285  00000-0  19897-4 0  9998
2 59782  43.0030 117.8500 0001178 230.6657 129.4091 15.27575891 75863
Epoch: 2025-09-15T00:10Z
TLE epoch observation values (Epoch: 2025-09-15T00:10:37.949Z)
Latitude
0.00004°
Longitude
120.9737°
Altitude
483.35 km
Speed
7.625 km/s
True Right ascension
07h 51m 24s
True Declination
0° 00' 00"
Sunlit
Object was in daylight at epoch
Visualization orbit readout
Latitude
Unknown
Longitude
Unknown
Altitude
Unknown
Speed
Unknown
Apparent Right ascension
Unknown
Apparent Declination
Unknown
Sunlit
N/A
Visualization observer readout
Local Sidereal Time
12:55:35
Azimuth
Unknown
Elevation
Unknown
Doppler factor
Unknown
Orbital elements
Apogee altitude
485.815 km
Perigee altitude
484.198 km
Semi-major axis
6,863.143 km
Eccentricity
0.00012
Inclination
43.003°
RAAN
117.85°
Arg. of periapsis
230.6657°
True anomaly
129.41953°
Mean anomaly
129.4091°
Eccentric anomaly
129.41431°
Mean motion
3.81732 °/min
Orbital period
94.31 mins
BSTAR
0.000019897
Loading maneuver chart data...
Computing Atmospheric mass density...
Loading historical data...
Loading historical data...
Loading historical data...
Loading historical data...
Loading historical data...
Loading historical data...
Loading historical data...

Documentation

Showing up to 5 results
|